Guadalupe Pass, TX

7:57 PM MST on January 23, 2018 (GMT -0700)
Guadalupe Pass

Weather History for KGDP - March, 2013

Change the Weather History Date:

Friday, March 8, 2013

  Actual Average Record
Temperature  
Mean Temperature 60 °F -  
Max Temperature 69 °F 58 °F 75 °F (2017)
Min Temperature 50 °F 37 °F 24 °F (1998)
Degree Days  
Heating Degree Days 6    
Growing Degree Days 10 (Base 50)    
Moisture  
Dew Point 37 °F    
Average Humidity 47    
Maximum Humidity 66    
Minimum Humidity 27    
Precipitation  
Precipitation 0.02 in - - ()
Sea Level Pressure  
Sea Level Pressure 29.80 in    
Wind  
Wind Speed 26 mph (WSW)    
Max Wind Speed 36 mph    
Max Gust Speed 45 mph    
Visibility 8 miles    
Events Rain    
Averages and records for this station are not official NWS values.
T = Trace of Precipitation, MM = Missing Value Source: NWS Daily Summary

Daily Weather History Graph

Daily Weather History Graph

Search for Another Location

Airport or City:

Trip Planner

Search our weather history database for the weather conditions in past years. The results will help you decide how hot, cold, wet, or windy it might be!

Date:

Astronomy

Mar. 08, 2013 Rise Set
Actual Time 6:17 AM MST 6:02 PM MST
Civil Twilight 5:53 AM MST 6:26 PM MST
Nautical Twilight 5:25 AM MST 6:55 PM MST
Astronomical Twilight 4:56 AM MST 7:23 PM MST
Moon 3:54 AM MST (3/8) 3:08 PM MST (3/8)
Length of Visible Light 12h 33m
Length of Day
11h 44m
Waning Crescent, 11% of the Moon is Illuminated
Mar 8
Waning Crescent
Mar 11
New
Mar 19
First Quarter
Mar 27
Full
Apr 2
Last Quarter

Hourly Weather History & Observations

Time (MST) Temp. Dew Point Humidity Pressure Visibility Wind Dir Wind Speed Gust Speed Precip Events Conditions
12:51 AM 53.1 °F 39.0 °F 59% 29.92 in 10.0 mi WSW 24.2 mph 31.1 mph 0.01 in   Overcast
1:51 AM 52.0 °F 41.0 °F 66% 29.90 in 9.0 mi WSW 21.9 mph 26.5 mph 0.01 in Rain Light Rain
2:51 AM 52.0 °F 41.0 °F 66% 29.88 in 10.0 mi WSW 28.8 mph - 0.00 in   Overcast
3:51 AM 53.1 °F 39.9 °F 61% 29.85 in 10.0 mi WSW 26.5 mph 32.2 mph N/A   Overcast
4:51 AM 51.1 °F 39.9 °F 66% 29.81 in 10.0 mi SW 33.4 mph - N/A   Scattered Clouds
5:51 AM 50.0 °F 37.9 °F 63% 29.86 in 10.0 mi WSW 20.7 mph - N/A   Clear
6:51 AM 52.0 °F 37.0 °F 57% 29.88 in 9.0 mi WSW 17.3 mph - N/A   Clear
7:51 AM 54.0 °F 37.9 °F 55% 29.90 in 8.0 mi WSW 17.3 mph 23.0 mph N/A   Clear
8:51 AM 60.1 °F 36.0 °F 41% 29.87 in 8.0 mi WSW 21.9 mph - N/A   Clear
9:51 AM 63.0 °F 37.0 °F 38% 29.85 in 8.0 mi WSW 29.9 mph - N/A   Clear
10:51 AM 64.9 °F 35.1 °F 33% 29.82 in 8.0 mi WSW 33.4 mph 44.9 mph N/A   Clear
11:51 AM 68.0 °F 34.0 °F 28% 29.81 in 8.0 mi WSW 35.7 mph 40.3 mph N/A   Clear
12:51 PM 69.1 °F 34.0 °F 27% 29.78 in 8.0 mi WSW 34.5 mph 41.4 mph N/A   Mostly Cloudy
1:51 PM 64.9 °F 34.0 °F 32% 29.77 in 9.0 mi WSW 28.8 mph 44.9 mph 0.00 in   Overcast
2:51 PM 64.9 °F 35.1 °F 33% 29.75 in 8.0 mi WSW 27.6 mph 34.5 mph N/A   Overcast
3:51 PM 64.9 °F 35.1 °F 33% 29.72 in 8.0 mi SW 27.6 mph 36.8 mph N/A   Mostly Cloudy
4:51 PM 63.0 °F 36.0 °F 37% 29.72 in 9.0 mi WSW 28.8 mph 36.8 mph 0.00 in   Overcast
5:51 PM 60.1 °F 39.0 °F 46% 29.75 in 8.0 mi West 24.2 mph 33.4 mph 0.00 in Rain Light Rain
6:51 PM 57.9 °F 37.9 °F 47% 29.77 in 9.0 mi West 23.0 mph 32.2 mph 0.00 in   Mostly Cloudy
7:51 PM 57.9 °F 36.0 °F 44% 29.76 in 8.0 mi WSW 20.7 mph 38.0 mph N/A   Mostly Cloudy
8:51 PM 57.0 °F 35.1 °F 44% 29.74 in 7.0 mi WSW 25.3 mph 32.2 mph N/A   Overcast
9:51 PM 55.9 °F 36.0 °F 47% 29.73 in 7.0 mi WSW 20.7 mph 26.5 mph N/A   Mostly Cloudy
10:51 PM 54.0 °F 37.0 °F 53% 29.70 in 8.0 mi WSW 20.7 mph 31.1 mph N/A   Partly Cloudy
11:51 PM 55.0 °F 30.9 °F 40% 29.68 in 7.0 mi WSW 29.9 mph 42.6 mph N/A   Clear